RH
5 3 2 2 4 5 6 8 8 9 9 6 5 4 4 4 4 5 5 5 5 5 5 6 6 6 7
3 4 5 5 4 4 5 5 5 5 11 12 12 11 10 9 8 7 8 8 8 7 6 6 7 6 6
5 5 4 4 4 5 6 11 17 17 14 14 16 14 15 17 14 11 9 12 14 19 21 13 7 7 7
6 6 9 11 15 16 16 22 42 62 70 74 69 69 72 72 68 69 66 67 68 64 60 47 24 11 8
10 13 16 17 28 66 77 84 99 76 57 96 73 77 88 72 62 63 65 68 75 72 65 62 53 33 12
12 15 30 83 89 97 94 100 100 97 99 100 85 100 100 98 77 75 80 74 68 73 58 56 63 43 17
21 65 85 91 96 100 100 100 100 97 85 99 86 90 86 96 96 94 99 89 84 87 50 45 71 98 84
80 89 90 93 91 97 100 100 100 93 68 92 86 97 95 100 88 80 84 100 100 88 86 61 42 64 93
86 92 95 96 90 87 92 98 100 100 88 99 86 76 92 67 91 100 100 100 98 88 34 23 27 32 43
100 100 100 97 91 95 95 92 96 99 90 90 72 27 69 29 20 20 22 27 49 38 24 15 13 12 16
100 100 100 98 100 99 97 92 86 91 79 79 20 20 15 15 16 58 95 97 93 79 51 26 12 10 11
95 93 97 100 100 100 96 100 93 85 86 82 20 20 40 53 66 96 100 100 100 52 49 22 11 11 13
91 82 46 25 22 22 22 56 92 88 94 79 23 66 85 100 100 97 88 100 92 55 9 9 10 12 14
33 23 21 21 19 17 18 18 33 99 94 76 28 76 90 100 89 64 27 46 16 8 6 6 8 9 10
23 27 30 28 23 20 16 16 18 90 99 92 36 91 96 100 91 100 100 12 7 6 6 6 6 6 6
37 37 32 26 26 22 22 16 17 57 100 100 30 93 89 98 100 100 94 12 19 29 40 58 74 78 79
38 29 26 25 26 27 24 20 17 23 100 100 48 84 91 90 100 100 56 21 54 78 100 100 95 81 60
Wind_Speed
123 116 107 100 96 95 90 86 82 78 78 79 79 78 77 77 74 72 71 72 73 74 76 78 81 85 85
103 92 89 86 83 82 81 79 74 64 58 58 58 59 58 58 59 60 60 59 60 61 63 65 69 72 78
91 85 75 70 63 59 54 50 52 51 48 48 48 47 45 45 47 49 48 46 46 47 50 56 62 66 67
77 65 54 48 45 41 37 39 38 42 45 46 47 48 49 49 48 48 48 48 47 45 42 44 48 56 64
56 49 47 43 36 34 37 35 33 39 38 37 40 38 41 41 39 38 38 40 40 39 39 39 42 44 51
49 45 38 40 37 29 28 27 23 35 31 29 40 39 43 40 38 36 34 33 36 33 35 37 37 37 38
38 38 37 32 29 24 24 27 31 34 28 27 39 37 39 38 39 39 38 30 28 29 32 35 36 35 35
38 34 29 27 25 23 20 19 27 36 37 32 36 35 35 37 36 33 29 30 33 37 39 36 39 40 42
32 30 28 28 27 23 23 25 24 32 39 32 38 34 33 32 30 27 26 29 32 37 38 36 38 40 42
26 27 28 29 30 32 31 28 27 26 33 32 35 32 27 31 24 23 23 22 21 23 27 31 35 37 37
24 25 26 28 28 30 33 33 28 30 34 36 33 29 29 22 21 16 21 26 28 29 26 26 27 30 30
25 27 26 28 29 32 32 32 34 34 32 34 29 27 26 26 23 24 29 32 34 35 26 28 25 24 24
29 30 32 30 27 28 31 31 33 30 29 30 24 21 26 31 32 31 29 30 29 30 21 21 20 15 15
30 31 30 30 30 27 26 24 24 26 26 24 18 21 27 32 32 28 26 22 22 20 15 14 11 7 14
29 26 28 28 29 27 25 24 20 15 21 19 13 16 21 25 24 30 39 26 22 23 23 26 32 38 43
25 27 27 26 27 27 25 22 19 13 16 13 10 10 17 20 20 30 29 23 29 33 35 39 43 46 48
26 25 25 26 25 25 25 22 20 12 10 7 6 6 11 14 21 26 24 23 26 26 27 32 36 39 39
Wind_Direction
306 304 299 297 295 294 293 290 288 289 289 288 286 283 280 278 276 273 271 269 266 264 261 258 255 253 253
306 302 301 298 294 290 288 289 292 295 293 290 287 283 282 280 278 274 271 269 267 265 263 261 257 254 251
307 307 305 301 297 296 297 300 298 297 295 292 291 291 288 284 281 279 275 272 268 268 267 262 257 253 250
310 312 311 309 310 307 304 301 301 298 293 293 292 290 290 287 286 285 284 281 280 276 273 268 262 255 250
314 314 315 315 316 313 308 304 301 293 300 301 299 302 297 296 295 292 290 287 284 278 273 269 265 262 252
317 317 320 317 318 324 322 319 310 302 314 309 298 298 295 293 288 289 291 295 286 272 262 257 256 260 257
319 320 324 325 330 330 331 328 321 315 324 318 306 308 303 299 293 289 283 285 289 287 271 255 246 251 256
320 323 327 333 340 342 342 338 329 325 330 330 322 324 319 306 306 306 295 274 277 285 289 276 254 249 244
324 331 335 335 338 342 345 347 344 329 327 331 330 337 326 324 322 315 299 288 287 285 281 274 267 260 253
323 326 331 335 335 337 342 344 343 337 328 340 341 344 341 329 330 322 315 313 306 299 290 279 273 264 253
321 323 325 327 329 331 333 333 340 344 343 351 351 350 351 349 343 350 358 351 341 325 322 299 280 266 254
320 322 325 326 327 325 326 329 336 346 349 353 357 8 12 8 358 352 350 339 331 328 314 305 289 272 248
325 322 323 323 325 323 323 325 331 342 350 354 8 19 22 13 359 355 345 343 334 339 330 322 309 282 237
319 319 322 324 325 324 323 324 326 335 347 357 14 17 20 10 7 6 358 349 360 2 8 18 36 112 147
323 327 327 325 328 332 330 322 321 334 343 360 20 29 25 20 15 20 17 28 41 56 70 85 96 105 113
330 328 327 328 327 327 331 330 321 336 345 356 17 41 37 31 26 27 29 62 78 85 89 95 101 107 112
330 331 334 333 334 333 328 327 326 334 343 345 16 77 46 46 15 20 39 90 92 90 92 102 106 111 116